Aspen, CO

7:29 PM MST on December 08, 2016 (GMT -0700)
Aspen-Pitkin County / Sardy Field

Weather History for KASE - July, 2012

Change the Weather History Date:

Tuesday, July 3, 2012

  Actual Average Record
Temperature  
Mean Temperature 67 °F 62 °F  
Max Temperature 85 °F 79 °F 88 °F (1989)
Min Temperature 48 °F 45 °F 33 °F (1992)
Degree Days  
Heating Degree Days 0 3  
Month to date heating degree days 0 10  
Since 1 June heating degree days 86 239  
Since 1 July heating degree days 0 10  
Cooling Degree Days 2 1  
Month to date cooling degree days 12 1  
Year to date cooling degree days 49 5  
Since 1 June cooling degree days 49 5  
Growing Degree Days 16 (Base 50)    
Moisture  
Dew Point 42 °F    
Average Humidity 46    
Maximum Humidity 74    
Minimum Humidity 18    
Precipitation  
Precipitation 0.05 in 0.04 in 0.46 in (2016)
Month to date precipitation 0.05 0.12  
Year to date precipitation 4.91 8.19  
Sea Level Pressure  
Sea Level Pressure 29.83 in    
Wind  
Wind Speed 8 mph (SSE)    
Max Wind Speed 29 mph    
Max Gust Speed 38 mph    
Visibility 10 miles    
Events Rain , Thunderstorm    
T = Trace of Precipitation, MM = Missing Value Source: NWS Daily Summary

Daily Weather History Graph

Daily Weather History Graph

Search for Another Location

Airport or City:

Trip Planner

Search our weather history database for the weather conditions in past years. The results will help you decide how hot, cold, wet, or windy it might be!

Date:

Astronomy

Jul. 03, 2012 Rise Set
Actual Time 5:46 AM MDT 8:37 PM MDT
Civil Twilight 5:14 AM MDT 9:09 PM MDT
Nautical Twilight 4:33 AM MDT 9:49 PM MDT
Astronomical Twilight 3:47 AM MDT 10:35 PM MDT
Moon 8:34 PM MDT (7/3) 5:42 AM MDT (7/3)
Length of Visible Light 15h 55m
Length of Day
14h 51m
Full, 100% of the Moon is Illuminated
Jul 3
Full
Jul 3
Full
Jul 10
Last Quarter
Jul 18
New
Jul 26
First Quarter

Hourly Weather History & Observations

Time (MDT) Temp. Dew Point Humidity Pressure Visibility Wind Dir Wind Speed Gust Speed Precip Events Conditions
12:53 AM 53.1 °F 43.0 °F 69% 29.86 in 10.0 mi Calm Calm - N/A   Clear
1:53 AM 51.1 °F 43.0 °F 74% 29.85 in 10.0 mi South 5.8 mph - N/A   Clear
2:53 AM 51.1 °F 43.0 °F 74% 29.83 in 10.0 mi Calm Calm - N/A   Clear
3:53 AM 50.0 °F 42.1 °F 74% 29.87 in 10.0 mi SSW 3.5 mph - N/A   Clear
4:53 AM 52.0 °F 42.1 °F 69% 29.89 in 10.0 mi SSE 4.6 mph - N/A   Clear
5:53 AM 51.1 °F 41.0 °F 68% 29.89 in 10.0 mi SSW 5.8 mph - N/A   Mostly Cloudy
6:53 AM 53.1 °F 42.1 °F 66% 29.89 in 10.0 mi SSE 3.5 mph - N/A   Partly Cloudy
7:53 AM 61.0 °F 42.1 °F 50% 29.86 in 10.0 mi Calm Calm - N/A   Partly Cloudy
8:53 AM 64.9 °F 43.0 °F 45% 29.86 in 10.0 mi NNW 5.8 mph - N/A   Partly Cloudy
9:53 AM 71.1 °F 41.0 °F 34% 29.85 in 10.0 mi NE 4.6 mph - N/A   Clear
10:53 AM 77.0 °F 43.0 °F 30% 29.82 in 10.0 mi Variable 6.9 mph - N/A   Clear
11:53 AM 82.0 °F 37.0 °F 20% 29.80 in 10.0 mi North 10.4 mph - N/A   Clear
12:53 PM 82.9 °F 36.0 °F 19% 29.79 in 10.0 mi North 13.8 mph 21.9 mph N/A   Scattered Clouds
1:53 PM 82.9 °F 36.0 °F 19% 29.78 in 10.0 mi NW 15.0 mph 21.9 mph N/A   Mostly Cloudy
2:53 PM 81.0 °F 37.0 °F 21% 29.79 in 10.0 mi NNW 11.5 mph 24.2 mph N/A   Mostly Cloudy
3:53 PM 82.9 °F 36.0 °F 19% 29.75 in 10.0 mi Variable 3.5 mph - N/A   Scattered Clouds
4:53 PM 81.0 °F 35.1 °F 19% 29.73 in 10.0 mi NW 6.9 mph - N/A   Scattered Clouds
5:53 PM 66.0 °F 48.0 °F 52% 29.85 in 10.0 mi SSE 21.9 mph 34.5 mph N/A Rain , Thunderstorm Light Thunderstorms and Rain
6:53 PM 62.1 °F 51.1 °F 67% 29.88 in 10.0 mi SE 17.3 mph 27.6 mph 0.04 in Rain Light Rain
7:53 PM 62.1 °F 50.0 °F 65% 29.84 in 10.0 mi SE 16.1 mph 23.0 mph 0.00 in   Mostly Cloudy
8:53 PM 62.1 °F 48.0 °F 60% 29.82 in 10.0 mi SE 10.4 mph - N/A   Scattered Clouds
9:53 PM 62.1 °F 46.9 °F 58% 29.81 in 10.0 mi SSE 11.5 mph - N/A   Clear
10:53 PM 62.1 °F 46.9 °F 58% 29.79 in 10.0 mi SSE 10.4 mph - N/A   Clear
11:53 PM 57.9 °F 46.0 °F 65% 29.80 in 10.0 mi SSW 8.1 mph - N/A   Clear